Location: Gensac
(43.2177°N, 1.1313°E)
Time: 17:10:31
(UTC+00:00)

Daily predictions for brighter satellites

Satellite Brightness Start Highest point End
(mag) Time Altitude Azimuth Time Altitude Azimuth Time Altitude Azimuth
Cosmos 2056 Rocket 3.7 18:13:08 10° NNW 18:18:22 80° WSW 18:23:40 10° SSE
ATLAS 3B R/B 4.3 18:17:18 10° ESE 18:19:11 11° E 18:21:04 10° E
Cosmos 1707 3.0 18:18:31 10° N 18:22:08 42° ENE 18:25:42 10° SSE
Cosmos 1975 4.1 18:19:52 10° SE 18:22:41 20° E 18:25:31 10° NE
ADEOS 3.8 18:19:04 10° SSE 18:24:17 80° WSW 18:29:32 10° NNW
Cosmos 2285 Rocket 4.0 18:22:34 10° S 18:28:53 75° ESE 18:35:11 10° NNE
KORONAS-FOTON 3.8 18:25:43 10° N 18:29:21 52° E 18:32:57 10° SSE
Cosmos 2263 Rocket 4.4 18:25:56 10° NW 18:30:35 28° WSW 18:35:13 10° SSW
Cosmos 1674 2.6 18:28:13 10° N 18:31:46 55° E 18:35:17 10° SSE
Cosmos 1470 Rocket 4.1 18:32:52 10° SSE 18:36:49 36° E 18:40:49 10° NNE
Cosmos 1726 2.5 18:34:03 10° SSE 18:37:06 33° E 18:40:11 10° NNE
JB-3 4.3 18:33:47 10° N 18:37:35 85° WNW 18:41:26 10° SSW
Cosmos 1842 3.5 18:35:12 10° NNW 18:39:00 72° W 18:42:46 10° S
Cosmos 2084 3.3 18:36:33 10° NNW 18:40:17 58° NE 18:43:58 11° SE
Cosmos 1452 Rocket 3.7 18:36:23 10° N 18:41:32 51° ENE 18:46:39 10° SE
USA 215 3.5 18:37:03 10° ENE 18:43:20 47° SE 18:49:35 10° SSW
Cosmos 494 Rocket 3.9 18:38:25 10° SSW 18:43:39 80° ESE 18:48:54 10° NNE
Meteor 2-10 4.5 18:39:06 10° SSE 18:44:32 47° E 18:49:59 10° NNE
Okean 3 4.0 18:43:04 10° N 18:46:54 36° ENE 18:50:42 10° SE
PAYLOAD B 4.2 18:41:37 10° SSE 18:47:08 66° ENE 18:52:40 10° N
Cosmos 1048 Rocket 4.0 18:42:30 10° S 18:47:49 73° ESE 18:53:12 10° NNE
Cosmos 2341 Rocket 4.0 18:46:01 10° N 18:52:18 74° E 18:58:35 10° SSE
ISS -1.6 18:50:28 10° NW 18:52:58 19° N 18:55:27 10° NE
Cosmos 2366 rocket 4.0 18:47:11 10° N 18:53:17 57° ENE 18:59:19 10° SSE
SL-8 Rocket 4.0 18:49:02 10° N 18:55:16 69° E 19:01:31 10° SSE
Iridium 2 3.3 18:52:02 10° N 18:55:29 89° NE 18:58:55 10° S
CZ-4B R/B 4.0 18:53:37 10° S 18:57:00 39° W 19:00:20 10° NNW
DMSP B5D1-3 4.4 18:52:33 10° NNE 18:57:40 82° ESE 19:02:45 10° SSW
CZ-4B DEB 4.4 18:54:03 10° S 18:59:29 75° WSW 19:04:58 10° NNW
SL-16 R/B 3.5 18:57:16 10° SW 19:02:39 43° WNW 19:08:03 10° NNE
Cosmos 1844 Rocket 2.8 18:57:23 10° NNW 19:02:58 76° WSW 19:08:31 10° SSE
Cosmos 1805 3.5 19:00:15 10° SSE 19:03:49 42° E 19:07:24 10° NNE
ADEOS Rocket 4.2 19:00:02 15° ESE 19:05:35 35° ENE 19:12:14 10° N
BREEZE M DEB (TANK) 2.5 19:03:58 10° SSW 19:05:46 27° SE 19:05:46 27° SE
Cosmos 1703 Rocket 4.1 19:02:54 10° N 19:07:04 39° ENE 19:09:37 21° SE
Cosmos 2219 Rocket 2.3 19:01:43 10° S 19:07:05 51° ESE 19:12:29 10° NE
SL-14 R/B 3.7 19:05:05 10° N 19:08:49 38° ENE 19:10:26 26° SE
NOSS 2-3 (E) 3.4 19:06:03 10° SSW 19:09:36 47° ESE 19:13:25 10° NE
CSL-04 Debris 4.5 19:09:46 17° SE 19:13:45 47° ENE 19:18:56 10° N
Cosmos 1933 Rocket 3.6 19:11:28 10° S 19:15:44 52° E 19:20:01 10° NNE
NOSS 3-1 (C) 4.5 19:12:23 10° SSE 19:13:50 16° SSE 19:13:50 16° SSE
SL-8 R/B 4.4 19:12:03 10° WNW 19:16:38 45° N 19:19:18 22° ENE
Okean 2 4.1 19:13:06 10° NNE 19:16:43 31° ENE 19:17:05 31° E
USA 186 2.2 19:17:06 36° ENE 19:17:06 36° ENE 19:19:40 10° N
CZ-4C R/B 2.8 19:13:55 10° NNE 19:17:20 76° ESE 19:20:44 10° S
USA 267 3.9 19:13:24 20° E 19:17:36 43° NNE 19:23:42 10° NW
Cosmos 1943 Rocket 4.3 19:17:06 10° NNE 19:17:48 10° NE 19:18:32 10° NE
Cosmos 2218 Rocket 3.9 19:12:12 10° N 19:18:23 86° E 19:24:32 10° S
NOSS 2-2 (E) 4.0 19:17:43 10° S 19:19:49 27° SSE 19:19:49 27° SSE
CZ-4B R/B 3.1 19:15:58 10° SSE 19:21:15 90° W 19:26:35 10° NNW
Feng Yun 1-1 Rocket 4.3 19:18:43 10° SSE 19:24:36 75° ENE 19:30:24 10° N
PSLV R/B 3.8 19:20:58 10° S 19:24:41 75° WSW 19:28:34 10° NNW
Okean O Rocket 1.5 19:24:10 21° SSE 19:27:04 72° ENE 19:31:29 10° N
USA 81 4.1 19:21:54 10° S 19:27:09 81° W 19:32:26 10° N
Cosmos 2322 Rocket 3.6 19:23:17 10° SW 19:28:31 40° WNW 19:33:48 10° NNE
Landsat 7 4.0 19:24:32 10° S 19:29:14 73° WSW 19:33:57 10° NNW
Landsat 4 4.2 19:26:47 10° S 19:30:18 55° WSW 19:33:52 10° NNW
Milstar 3 Cent rocket 4.1 19:20:58 10° WSW 19:30:40 29° S 19:34:01 21° SSE
Okean 1-7 3.0 19:27:59 10° N 19:32:18 85° W 19:35:40 17° S
Meteor 1-21 4.5 19:27:08 10° NNW 19:32:57 73° W 19:38:42 10° S
Cosmos 2278 Rocket 3.4 19:30:42 10° N 19:35:16 24° NE 19:36:01 24° ENE
Lacrosse 5 4.1 19:31:50 10° WNW 19:35:35 20° NNW 19:39:20 10° NNE
Cosmos 1340 Rocket 2.9 19:32:09 10° NNW 19:36:12 76° W 19:38:40 23° S
Resurs 01 Rocket 2.0 19:36:15 41° E 19:36:28 41° ENE 19:40:40 10° N
CSL-04 Rocket 3.5 19:34:22 28° SE 19:37:06 66° ENE 19:42:20 10° N
Cosmos 1110 Rocket 4.4 19:33:56 10° NNW 19:39:03 61° WSW 19:43:31 14° S
SJ-6B 3.5 19:38:30 14° S 19:41:53 55° W 19:45:51 10° NNW
SL-08 R/B 4.5 19:36:17 10° N 19:42:22 59° E 19:45:00 33° SE
Cosmos 1818 4.4 19:40:05 10° NNW 19:45:02 33° NE 19:45:51 32° ENE
CZ-4 R/B 3.0 19:48:06 10° SSW 19:51:37 32° W 19:55:07 10° NNW
Okean-O 2.8 19:51:51 54° ENE 19:51:51 54° ENE 19:55:57 10° N
DEBRIS 3.7 19:49:42 10° W 19:51:11 30° WSW 19:51:11 30° WSW
BREEZE-M DEB (TANK) 4.3 19:49:53 10° WNW 19:53:38 32° N 19:53:38 32° N
BREEZE-M DEB (TANK) 3.2 19:51:26 10° NW 19:54:13 61° NNE 19:54:41 56° ENE
Cosmos 1241 Rocket 4.4 19:48:13 10° NNW 19:54:29 67° NE 19:56:08 48° ESE
Cosmos 2333 Rocket 3.3 19:49:13 10° SW 19:54:36 45° WNW 20:00:03 10° NNE
USA 308 3.6 19:51:18 10° NW 19:54:06 35° N 19:54:06 35° N
Cosmos 1869 Rocket 3.4 19:55:09 75° ESE 19:55:16 76° E 19:59:39 10° NNE
Resurs 1-3 4.4 19:53:46 19° SSW 19:56:42 49° W 20:00:57 10° NNW
Cosmos 2360 Rocket 3.9 19:54:25 10° WSW 19:59:26 32° NW 20:04:31 10° N
COSMOS 2428 2.5 19:53:56 10° SSW 19:59:35 73° ESE 20:05:15 10° NNE
Cosmos 2322 3.7 19:55:32 10° SSW 20:01:15 86° WNW 20:07:02 10° NNE
Cosmos 2242 Rocket 3.6 19:59:30 10° N 20:03:34 68° NNE 20:03:34 68° NNE
ATLAS 3B R/B 2.6 20:01:40 10° SSW 20:08:22 67° ESE 20:15:39 10° NE
Cosmos 1302 Rocket 4.0 20:05:28 10° NNW 20:10:44 76° WSW 20:11:41 58° S
MOS 1 4.3 20:12:48 60° ENE 20:12:48 60° ENE 20:18:20 10° N
Cosmos 1992 Rocket 4.2 20:16:28 10° NNW 20:20:54 57° NNE 20:20:54 57° NNE
Gbstr 26 Del rocket 4.4 20:14:36 10° SW 20:22:23 59° SE 20:23:01 58° ESE
Cosmos 1934 Rocket 3.9 20:18:56 10° N 20:25:18 72° E 20:25:24 72° E
SPOT 1/Viking Rocket 4.4 20:23:44 33° SSW 20:25:37 47° W 20:30:36 10° NNW
USA 215 3.7 20:20:02 10° NE 20:26:25 58° NNW 20:32:47 10° WSW
ISS -0.9 20:27:35 10° NW 20:28:37 16° NNW 20:28:37 16° NNW
COSMOS 2455 2.8 20:25:52 10° NNW 20:31:38 72° NNE 20:31:38 72° NNE
Terra 4.0 20:41:30 17° NNE 20:41:30 17° NNE 20:42:43 10° N
ADEOS Rocket 4.0 20:46:59 32° SSW 20:50:40 56° W 20:58:10 10° NNW
Cosmos 2219 Rocket 4.2 20:46:38 10° WSW 20:51:17 26° NW 20:55:59 10° N
USA 267 3.3 21:00:46 71° WSW 21:00:46 71° WSW 21:06:55 10° NW
Cosmos 1943 Rocket 3.5 20:57:28 10° NNW 21:00:47 33° N 21:00:47 33° N
Resurs 01 Rocket 4.1 21:13:47 19° W 21:13:47 19° W 21:16:19 10° NW
Cosmos 2278 Rocket 3.4 21:14:11 10° NNW 21:17:52 39° NW 21:17:52 39° NW
Lacrosse 5 4.2 21:16:42 10° NW 21:19:29 18° N 21:19:29 18° N
Cosmos 2369 Rocket 4.5 21:51:14 10° N 21:52:42 17° N 21:52:42 17° N
ATLAS 3B R/B 4.2 21:53:22 10° WSW 21:59:40 34° NW 22:06:23 10° NNE
CENTAUR R/B 4.3 22:07:32 10° NNW 22:13:52 34° NNE 22:13:52 34° NNE
